This is the latest recevied weather packets stored in our database for station/object N8TWM-13. If no packets are shown the sender has not sent any weather packets the latest 1 day(s).
| Time | Temp. | Humidity | Pressure | Rain* | Wind** | Luminosity | Snow |
|---|---|---|---|---|---|---|---|
| 1778000524 | 17.78° C | 75% | 1008.6 hPa | 0 mm | 0 m/s | 43 W/m² | - |
| 1778000228 | 17.78° C | 74% | 1008.7 hPa | 0 mm | 0.89 m/s, 308° | 78 W/m² | - |
| 1777999920 | 17.78° C | 74% | 1008.6 hPa | 0 mm | 0 m/s | 48 W/m² | - |
| 1777999616 | 17.78° C | 74% | 1008.7 hPa | 0 mm | 0.89 m/s, 249° | 32 W/m² | - |
| 1777999313 | 17.78° C | 73% | 1008.6 hPa | 0 mm | 1.34 m/s, 222° | 62 W/m² | - |
| 1777999011 | 18.33° C | 72% | 1008.6 hPa | 0 mm | 1.34 m/s, 289° | 127 W/m² | - |
| 1777998709 | 18.33° C | 71% | 1008.5 hPa | 0 mm | 2.24 m/s, 219° | 86 W/m² | - |
| 1777998406 | 18.33° C | 71% | 1008.6 hPa | 0 mm | 1.34 m/s, 249° | 62 W/m² | - |
| 1777998104 | 18.89° C | 70% | 1008.5 hPa | 0 mm | 1.34 m/s, 257° | 111 W/m² | - |
| 1777997800 | 19.44° C | 67% | 1008.5 hPa | 0 mm | 3.58 m/s, 284° | 139 W/m² | - |
| 1777997498 | 19.44° C | 67% | 1008.4 hPa | 0 mm | 0.89 m/s, 249° | 252 W/m² | - |
| 1777997196 | 20° C | 66% | 1008.4 hPa | 0 mm | 1.34 m/s, 229° | 354 W/m² | - |
| 1777996893 | 20° C | 65% | 1008.1 hPa | 0 mm | 1.79 m/s, 218° | 396 W/m² | - |
| 1777996589 | 20° C | 64% | 1008.5 hPa | 0 mm | 3.58 m/s, 235° | 577 W/m² | - |
| 1777996285 | 20° C | 64% | 1008.5 hPa | 0 mm | 3.58 m/s, 239° | 613 W/m² | - |
| 1777995981 | 20° C | 65% | 1008.6 hPa | 0 mm | 0.89 m/s, 260° | 370 W/m² | - |
| 1777995677 | 20.56° C | 64% | 1008 hPa | 0 mm | 0.89 m/s, 247° | 298 W/m² | - |
| 1777995375 | 20° C | 64% | 1008.1 hPa | 0 mm | 0.89 m/s, 248° | 564 W/m² | - |
| 1777995072 | 20° C | 62% | 1008 hPa | 0 mm | 1.34 m/s, 256° | 538 W/m² | - |
| 1777994773 | 20° C | 63% | 1007.6 hPa | 0 mm | 1.34 m/s, 253° | 327 W/m² | - |
| 1777994464 | 20.56° C | 62% | 1007.8 hPa | 0 mm | 2.68 m/s, 201° | 580 W/m² | - |
| 1777994160 | 20° C | 63% | 1007.8 hPa | 0 mm | 0.45 m/s, 247° | 686 W/m² | - |
| 1777993858 | 20° C | 64% | 1007.1 hPa | 0 mm | 0 m/s | 677 W/m² | - |
| 1777993554 | 20° C | 63% | 1007.2 hPa | 0 mm | 1.79 m/s, 225° | 693 W/m² | - |
| 1777993250 | 20° C | 64% | 1007.2 hPa | 0 mm | 1.34 m/s, 208° | 667 W/m² | - |
* Rain latest hour (hover to see other rain measurements)
** Current wind speed in m/s (hover to see current wind gust speed)